When you browse on this site, cookies collect data to enhance your experience and personalize the content and advertising you see.
Visit our Privacy Policy to learn more. By continuing to use the site, you agree to this use of cookies and data.

Hourly Weather Oran

Today, 4 July, Saturday

Time Temperature Precipitation Wind Pressure Humidity
00:00 +25°C° 0 mm 2 mps 754 mmHg 71%
01:00 +25°C° 0 mm 2 mps 754 mmHg 74%
02:00 +24°C° 0 mm 2 mps 754 mmHg 78%
03:00 +24°C° 0 mm 2 mps 753 mmHg 82%
04:00 +24°C° 0 mm 2 mps 754 mmHg 80%
05:00 +25°C° 0 mm 2 mps 754 mmHg 78%
06:00 +26°C° 0 mm 2 mps 754 mmHg 73%
07:00 +28°C° 0 mm 3 mps 754 mmHg 62%
08:00 +30°C° 0 mm 3 mps 754 mmHg 51%
09:00 +33°C° 0 mm 3 mps 754 mmHg 39%
10:00 +34°C° 0 mm 4 mps 754 mmHg 36%
11:00 +35°C° 0 mm 4 mps 754 mmHg 33%
12:00 +37°C° 0 mm 5 mps 754 mmHg 30%
13:00 +38°C° 0 mm 6 mps 754 mmHg 32%
14:00 +38°C° 0 mm 6 mps 754 mmHg 33%
15:00 +38°C° 0 mm 7 mps 753 mmHg 34%
16:00 +36°C° 0 mm 7 mps 753 mmHg 35%
17:00 +35°C° 0 mm 6 mps 753 mmHg 35%
18:00 +33°C° 0 mm 6 mps 753 mmHg 36%
19:00 +32°C° 0 mm 6 mps 753 mmHg 39%
20:00 +30°C° 0 mm 5 mps 753 mmHg 42%
21:00 +29°C° 0 mm 4 mps 753 mmHg 45%
22:00 +29°C° 0 mm 4 mps 754 mmHg 44%
23:00 +29°C° 0 mm 3 mps 754 mmHg 44%

Tomorrow, 5 July, Sunday

Time Temperature Precipitation Wind Pressure Humidity
00:00 +29°C° 0 mm 3 mps 754 mmHg 44%
01:00 +28°C° 0 mm 3 mps 754 mmHg 46%
02:00 +27°C° 0 mm 3 mps 753 mmHg 47%
03:00 +26°C° 0 mm 2 mps 753 mmHg 49%
04:00 +27°C° 0 mm 3 mps 753 mmHg 49%
05:00 +27°C° 0 mm 3 mps 753 mmHg 49%
06:00 +27°C° 0 mm 3 mps 753 mmHg 49%
07:00 +30°C° 0 mm 4 mps 753 mmHg 40%
08:00 +33°C° 0 mm 4 mps 753 mmHg 30%
09:00 +36°C° 0 mm 4 mps 754 mmHg 21%
10:00 +37°C° 0 mm 5 mps 753 mmHg 20%
11:00 +39°C° 0 mm 6 mps 753 mmHg 19%
12:00 +40°C° 0 mm 6 mps 753 mmHg 17%
13:00 +40°C° 0 mm 7 mps 753 mmHg 19%
14:00 +40°C° 0 mm 7 mps 752 mmHg 21%
15:00 +39°C° 0 mm 7 mps 752 mmHg 23%
16:00 +38°C° 0 mm 8 mps 752 mmHg 25%
17:00 +37°C° 0 mm 8 mps 752 mmHg 28%
18:00 +34°C° 0 mm 8 mps 751 mmHg 30%
19:00 +33°C° 0 mm 7 mps 752 mmHg 31%
20:00 +32°C° 0 mm 5 mps 752 mmHg 33%
21:00 +29°C° 0 mm 4 mps 752 mmHg 35%
22:00 +29°C° 0 mm 3 mps 752 mmHg 35%
23:00 +28°C° 0 mm 2 mps 752 mmHg 36%

Day after tomorrow, 6 July, Monday

Time Temperature Precipitation Wind Pressure Humidity
00:00 +28°C° 0 mm 1 mps 752 mmHg 37%
01:00 +27°C° 0 mm 1 mps 752 mmHg 38%
02:00 +27°C° 0 mm 2 mps 751 mmHg 40%
03:00 +26°C° 0 mm 2 mps 751 mmHg 41%
04:00 +26°C° 0 mm 2 mps 751 mmHg 44%
05:00 +26°C° 0 mm 2 mps 751 mmHg 47%
06:00 +27°C° 0 mm 2 mps 751 mmHg 50%
07:00 +29°C° 0 mm 2 mps 751 mmHg 41%
08:00 +31°C° 0 mm 2 mps 751 mmHg 33%
09:00 +34°C° 0 mm 3 mps 751 mmHg 25%
10:00 +36°C° 0 mm 3 mps 751 mmHg 23%
11:00 +38°C° 0 mm 4 mps 751 mmHg 20%
12:00 +40°C° 0 mm 5 mps 750 mmHg 18%
13:00 +40°C° 0 mm 5 mps 750 mmHg 18%
14:00 +41°C° 0 mm 5 mps 750 mmHg 18%
15:00 +41°C° 0 mm 6 mps 749 mmHg 18%
16:00 +40°C° 0 mm 5 mps 749 mmHg 20%
17:00 +37°C° 0 mm 5 mps 749 mmHg 22%
18:00 +36°C° 0 mm 5 mps 749 mmHg 24%
19:00 +35°C° 0 mm 4 mps 749 mmHg 27%
20:00 +33°C° 0 mm 3 mps 750 mmHg 31%
21:00 +30°C° 0 mm 2 mps 750 mmHg 34%
22:00 +29°C° 0 mm 2 mps 750 mmHg 38%
23:00 +29°C° 0 mm 2 mps 750 mmHg 42%

7 July, Tuesday

Time Temperature Precipitation Wind Pressure Humidity
00:00 +28°C° 0 mm 1 mps 750 mmHg 46%
01:00 +27°C° 0 mm 2 mps 750 mmHg 50%
02:00 +26°C° 0 mm 2 mps 749 mmHg 55%
03:00 +26°C° 0 mm 2 mps 749 mmHg 60%
04:00 +26°C° 0 mm 2 mps 749 mmHg 61%
05:00 +26°C° 0 mm 1 mps 749 mmHg 61%
06:00 +26°C° 0 mm 1 mps 750 mmHg 61%
07:00 +28°C° 0 mm 1 mps 750 mmHg 52%
08:00 +31°C° 0 mm 1 mps 750 mmHg 42%
09:00 +33°C° 0 mm 1 mps 750 mmHg 32%
10:00 +35°C° 0 mm 1 mps 750 mmHg 29%
11:00 +38°C° 0 mm 2 mps 750 mmHg 25%
12:00 +39°C° 0 mm 3 mps 750 mmHg 22%
13:00 +39°C° 0 mm 3 mps 750 mmHg 24%
14:00 +40°C° 0 mm 4 mps 749 mmHg 26%
15:00 +38°C° 0 mm 4 mps 749 mmHg 27%
16:00 +38°C° 0 mm 4 mps 749 mmHg 28%
17:00 +37°C° 0 mm 3 mps 749 mmHg 28%
18:00 +37°C° 0 mm 3 mps 749 mmHg 28%
19:00 +35°C° 0 mm 2 mps 749 mmHg 32%
20:00 +32°C° 0 mm 2 mps 750 mmHg 37%
21:00 +30°C° 0 mm 2 mps 750 mmHg 41%
22:00 +30°C° 0 mm 2 mps 750 mmHg 41%
23:00 +30°C° 0 mm 1 mps 750 mmHg 40%

8 July, Wednesday

Time Temperature Precipitation Wind Pressure Humidity
00:00 +29°C° 0 mm 1 mps 750 mmHg 39%
01:00 +29°C° 0 mm 2 mps 750 mmHg 40%
02:00 +28°C° 0 mm 3 mps 749 mmHg 42%
03:00 +28°C° 0 mm 3 mps 749 mmHg 43%
04:00 +28°C° 0 mm 3 mps 749 mmHg 45%
05:00 +28°C° 0 mm 3 mps 749 mmHg 48%
06:00 +28°C° 0 mm 3 mps 749 mmHg 50%
07:00 +30°C° 0 mm 3 mps 750 mmHg 43%
08:00 +33°C° 0 mm 3 mps 750 mmHg 37%
09:00 +35°C° 0 mm 2 mps 750 mmHg 30%
10:00 +37°C° 0 mm 3 mps 749 mmHg 27%
11:00 +39°C° 0 mm 3 mps 749 mmHg 24%
12:00 +42°C° 0 mm 4 mps 749 mmHg 21%
13:00 +42°C° 0 mm 5 mps 749 mmHg 21%
14:00 +42°C° 0 mm 6 mps 748 mmHg 21%
15:00 +43°C° 0 mm 7 mps 748 mmHg 21%
16:00 +41°C° 0 mm 6 mps 747 mmHg 25%
17:00 +39°C° 0 mm 5 mps 747 mmHg 28%
18:00 +36°C° 0 mm 4 mps 747 mmHg 31%
19:00 +33°C° 0 mm 4 mps 748 mmHg 45%
20:00 +29°C° 0 mm 4 mps 748 mmHg 59%
21:00 +26°C° 0 mm 4 mps 748 mmHg 72%
22:00 +26°C° 0 mm 4 mps 749 mmHg 74%
23:00 +26°C° 0 mm 4 mps 749 mmHg 75%

9 July, Thursday

Time Temperature Precipitation Wind Pressure Humidity
00:00 +26°C° 0 mm 4 mps 749 mmHg 77%
01:00 +25°C° 0 mm 4 mps 749 mmHg 80%
02:00 +25°C° 0 mm 4 mps 749 mmHg 83%
03:00 +24°C° 0 mm 3 mps 749 mmHg 86%
04:00 +23°C° 0 mm 4 mps 749 mmHg 84%
05:00 +23°C° 0 mm 4 mps 749 mmHg 83%
06:00 +23°C° 0 mm 5 mps 750 mmHg 82%
07:00 +26°C° 0 mm 4 mps 750 mmHg 76%
08:00 +27°C° 0 mm 4 mps 750 mmHg 69%
09:00 +28°C° 0 mm 4 mps 750 mmHg 62%
10:00 +29°C° 0 mm 4 mps 751 mmHg 58%
11:00 +30°C° 0 mm 4 mps 751 mmHg 53%
12:00 +32°C° 0 mm 4 mps 751 mmHg 49%
13:00 +32°C° 0 mm 4 mps 751 mmHg 48%
14:00 +32°C° 0 mm 4 mps 751 mmHg 48%
15:00 +32°C° 0 mm 4 mps 750 mmHg 48%
16:00 +30°C° 0 mm 3 mps 750 mmHg 48%
17:00 +30°C° 0 mm 3 mps 750 mmHg 48%
18:00 +29°C° 0 mm 2 mps 750 mmHg 48%
19:00 +28°C° 0 mm 2 mps 751 mmHg 55%
20:00 +27°C° 0 mm 2 mps 751 mmHg 61%
21:00 +26°C° 0 mm 2 mps 751 mmHg 67%
22:00 +26°C° 0 mm 2 mps 751 mmHg 69%
23:00 +25°C° 0 mm 2 mps 751 mmHg 72%
Show more